Find Starlink 33814

NORAD ID: 63582 Int'l Des: 2025-076 Owner: SPXS Country: US Constellation: starlink operational
LEOCIRCULAR

当前视图

正在加载3D地球...

关于 Starlink 33814

正在加载描述...

即将过境

Passes for default location (London). Set your location on the main map for personalized predictions.

高度历史

Loading altitude history...

两行轨道根数

1 63582U 25076P 26150.62046768 .00032935 00000-0 12008-2 0 9992
2 63582 42.9999 218.7320 0002807 247.5043 112.5512 15.27584153 64360
Epoch: May 30, 2026 • Age: 15 hours

当前状态

高度 484.5 km
速度 7.63 km/s
星下点 30.57°N, 23.65°E
发射日期 Apr 14, 2025
运行时间 1.1 years
类型 internet

技术详情

分类 Payload
质量 575.00 kg
干质量 530.00 kg
总质量 575.00 kg
长度 0.30 m
直径 4.10 m
跨度 29.00 m
形状 Box + pan
制造商 SPXS
平台类型 Starlink V2MO
阶段状态 In Orbit
所有者/国家 SPXS/US

Most Searched